Regional Weather Roundup
Issued by NWS Midland/Odessa, TX

Skip options and go directly to product.
Home | Oldest Version | Previous Version | Current Version | All | Text Only | Save Text | Print | Product List | Glossary Off

Skip product version selection by date and time.   

047
ASUS44 KMAF 062010
RWRMAF
MIDLAND AREA WEATHER ROUNDUP
NATIONAL WEATHER SERVICE MIDLAND TX
300 PM CDT FRI MAY 06 2016

...IN SOUTHWEST TEXAS AND SOUTHEAST NEW MEXICO...

CITY           SKY/WX    TMP DP  RH WIND       PRES   REMARKS
ALPINE         SUNNY     88  34  14 SE20G28   30.07F
ANDREWS        FAIR      88  35  15 S20G35    29.98F
ARTESIA        SUNNY     91  37  15 SE21G33   29.88F
BIG SPRING     SUNNY     86  41  21 E22G33    30.02F
CARLSBAD       SUNNY     92  34  13 SE18G25   29.88F
DRYDEN           N/A     92  42  17 E24G33    29.95F
FORT STOCKTON  NOT AVBL
GUAD PASS      MOSUNNY   88  28  11 SW30G44   30.00F
HOBBS          SUNNY     88  32  13 SE22G32   29.97F
MARFA          NOT AVBL
MIDLAND AIRPK  SUNNY     90  32  12 SE29      29.99F
MIDLAND INTL   SUNNY     90  35  14 S32G38    29.98F
ODESSA         SUNNY     90  34  13 S29G38    29.98F
PECOS          SUNNY     97  38  13 E29G38    29.84F
PRESIDIO       FAIR      98  36  11 E15G29    29.87F
SEMINOLE       SUNNY     88  32  13 SE31G43   29.99F
SNYDER           N/A     85  46  26 SE20G26   30.03F
WINK           SUNNY     93  37  14 SE25G38   29.89F
$$
...OTHER STATIONS IN TEXAS...

CITY           SKY/WX    TMP DP  RH WIND       PRES   REMARKS
ABILENE        SUNNY     84  55  36 SE16G23   30.05F
AMARILLO       SUNNY     84  40  21 S21G32    30.03F
AUSTIN         MOSUNNY   83  51  33 SE5       30.05F
BROWNSVILLE    SUNNY     87  54  32 SE10      30.01F
CORPUS CHRISTI MOSUNNY   87  52  29 E12       30.03F
DALLAS FTW     MOSUNNY   83  45  26 CALM      30.05F
DEL RIO        SUNNY     90  46  21 SE16G25   29.97F
EL PASO        MOSUNNY   93  13   5 S18G30    29.86F
HOUSTON INT    SUNNY     82  50  32 SE5       30.05F
LUBBOCK        MOSUNNY   88  34  14 S25G38    30.00F
SAN ANGELO     SUNNY     88  46  23 SE15G21   30.01F
SAN ANTONIO    MOSUNNY   83  54  36 VRB6      30.06F
WACO           SUNNY     83  50  31 S9        30.06F
WICHITA FALLS  NOT AVBL
$$
...OTHER LOCATIONS IN NEW MEXICO...

CITY           SKY/WX    TMP DP  RH WIND       PRES   REMARKS
ALAMAGORDO     SUNNY     90  16   6 SW17G31   29.91F
ALBUQUERQUE    MOSUNNY   82  15   8 S31G40    29.92F
CANNON AFB     SUNNY     85  33  15 S24G39    29.98F
CLOVIS         SUNNY     84  34  16 S30G40    30.00F
HOLLOMAN AFB   SUNNY     89  15   6 S15G33    29.88F
ROSWELL        SUNNY     91  31  11 S22       29.89F
RUIDOSO        SUNNY     77  16  10 S23G37    30.07F
SANTA FE       SUNNY     78  16   9 S25G36    29.99F
TRUTH OR CONSE SUNNY     82  15   8 SW21G40   29.92F
TUCUMCARI      SUNNY     89  31  12 S26G35    29.94F
$$

USA.gov is the U.S. government's official web portal to all federal, state and local government web resources and services.